KA3BQE-13 Weather Reports


Display with metric or nautical units.
time (UTC)temp
F
wind
direction
speed
MPH
gust
MPH
rain 1hr
in
rain 24hr
in
rain mn
in
humidity
%
barometer
mb
20260504025519 50 126 0.0 2.0 0.00 0.00 0.00 90 1010.2
20260504025015 49 31 0.0 2.0 0.00 0.00 0.00 90 1010.1
20260504024512 50 6 0.0 1.0 0.00 0.00 0.00 90 1010.1
20260504024009 50 10 0.0 2.0 0.00 0.00 0.00 89 1010.3
20260504023506 50 6 2.0 2.0 0.00 0.00 0.00 87 1010.3
20260504023002 51 31 0.0 2.0 0.00 0.00 0.00 87 1010.3
20260504022458 50 29 0.0 1.0 0.00 0.00 0.00 88 1010.1
20260504021954 51 18 1.0 1.0 0.00 0.00 0.00 88 1010.1
20260504021452 51 0 1.0 1.0 0.00 0.00 0.00 88 1010.1
20260504020949 51 53 0.0 1.0 0.00 0.00 0.00 87 1010.0
20260504020445 51 16 1.0 2.0 0.00 0.00 0.00 88 1010.2
20260504015942 51 6 0.0 2.0 0.00 0.00 0.00 87 1010.1
20260504015438 52 7 1.0 1.0 0.00 0.00 0.00 86 1010.0
20260504014934 52 22 0.0 2.0 0.00 0.00 0.00 85 1010.2
20260504014431 52 4 0.0 1.0 0.00 0.00 0.00 84 1010.1
20260504013927 53 15 0.0 1.0 0.00 0.00 0.00 83 1010.0
20260504013427 53 354 0.0 1.0 0.00 0.00 0.00 82 1010.0
20260504012926 53 1 0.0 1.0 0.00 0.00 0.00 82 1010.0
20260504012425 53 15 1.0 1.0 0.00 0.00 0.00 81 1009.9
20260504011922 54 6 0.0 0.0 0.00 0.00 0.00 79 1010.1
20260504011419 54 22 0.0 1.0 0.00 0.00 0.00 78 1010.1
20260504010914 55 50 0.0 0.0 0.00 0.00 0.00 77 1009.9
20260504010411 56 22 0.0 2.0 0.00 0.00 0.00 76 1010.0
20260504005907 57 49 0.0 1.0 0.00 0.00 0.00 71 1010.0
20260504005403 58 13 1.0 1.0 0.00 0.00 0.00 69 1010.0
20260504004901 59 29 1.0 2.0 0.00 0.00 0.00 68 1010.0
20260504004359 60 45 0.0 2.0 0.00 0.00 0.00 67 1010.0
20260504003855 61 352 2.0 2.0 0.00 0.00 0.00 65 1009.9
20260504003352 62 326 0.0 1.0 0.00 0.00 0.00 63 1009.8
20260504002848 62 329 1.0 2.0 0.00 0.00 0.00 62 1009.9
20260504002345 64 335 0.0 4.0 0.00 0.00 0.00 59 1009.6
20260504001843 65 224 0.0 2.0 0.00 0.00 0.00 55 1009.8
20260504001340 65 234 1.0 2.0 0.00 0.00 0.00 56 1009.7
20260504000837 65 251 0.0 2.0 0.00 0.00 0.00 56 1009.8
20260504000334 65 236 1.0 3.0 0.00 0.00 0.00 54 1009.8
20260503235832 65 233 3.0 5.0 0.00 0.00 0.00 53 1009.8
20260503235329 66 352 1.0 4.0 0.00 0.00 0.00 53 1009.8
20260503234826 66 304 1.0 4.0 0.00 0.00 0.00 54 1009.9
20260503234324 66 242 3.0 4.0 0.00 0.00 0.00 52 1010.0
20260503233822 66 213 2.0 4.0 0.00 0.00 0.00 52 1010.0
20260503233317 66 241 3.0 4.0 0.00 0.00 0.00 52 1009.9
20260503232814 66 238 3.0 4.0 0.00 0.00 0.00 51 1010.0
20260503232311 66 211 3.0 5.0 0.00 0.00 0.00 50 1010.1
20260503231809 66 233 5.0 5.0 0.00 0.00 0.00 50 1010.1
20260503231306 66 217 2.0 6.0 0.00 0.00 0.00 50 1009.9
20260503230802 66 234 5.0 6.0 0.00 0.00 0.00 49 1009.9
20260503230259 67 212 3.0 7.0 0.00 0.00 0.00 48 1010.1
20260503225757 66 227 10.0 11.0 0.00 0.00 0.00 48 1010.1
20260503225258 67 230 5.0 10.0 0.00 0.00 0.00 48 1010.3
20260503224755 66 182 6.0 9.0 0.00 0.00 0.00 48 1010.2
20260503224252 66 227 9.0 12.0 0.00 0.00 0.00 48 1010.4
20260503223750 66 229 2.0 6.0 0.00 0.00 0.00 50 1010.1
20260503223247 66 199 4.0 8.0 0.00 0.00 0.00 48 1010.3
20260503222743 66 227 0.0 9.0 0.00 0.00 0.00 48 1010.3
20260503222241 67 176 2.0 5.0 0.00 0.00 0.00 48 1010.4
20260503221739 67 205 2.0 11.0 0.00 0.00 0.00 48 1010.4
20260503221237 67 250 1.0 5.0 0.00 0.00 0.00 49 1010.5
20260503220733 66 200 4.0 11.0 0.00 0.00 0.00 48 1010.5
20260503220230 66 229 6.0 8.0 0.00 0.00 0.00 47 1010.5
20260503215727 66 217 1.0 9.0 0.00 0.00 0.00 48 1010.6
20260503215224 66 235 3.0 10.0 0.00 0.00 0.00 49 1010.6
20260503214722 67 206 2.0 5.0 0.00 0.00 0.00 47 1010.6
20260503214218 66 241 5.0 9.0 0.00 0.00 0.00 49 1010.6
20260503213717 66 274 3.0 10.0 0.00 0.00 0.00 47 1010.8
20260503213214 65 228 7.0 11.0 0.00 0.00 0.00 48 1010.6
20260503212710 65 165 3.0 13.0 0.00 0.00 0.00 49 1010.8
20260503212208 65 244 7.0 14.0 0.00 0.00 0.00 48 1011.0
20260503211706 65 226 2.0 7.0 0.00 0.00 0.00 48 1010.7
20260503211201 65 172 2.0 8.0 0.00 0.00 0.00 47 1010.8
20260503210657 65 187 2.0 9.0 0.00 0.00 0.00 47 1010.3
20260503210154 64 195 5.0 10.0 0.00 0.00 0.00 48 1010.6
20260503205650 64 236 6.0 15.0 0.00 0.00 0.00 47 1010.8
20260503205146 64 228 12.0 18.0 0.00 0.00 0.00 48 1010.8
20260503204643 64 194 7.0 9.0 0.00 0.00 0.00 48 1011.2
20260503204141 64 228 5.0 14.0 0.00 0.00 0.00 49 1011.2
20260503203632 65 207 5.0 13.0 0.00 0.00 0.00 48 1011.3
20260503203130 65 245 11.0 11.0 0.00 0.00 0.00 48 1011.2
20260503202627 64 208 15.0 19.0 0.00 0.00 0.00 47 1011.1
20260503202125 64 222 4.0 11.0 0.00 0.00 0.00 49 1011.4
20260503201623 64 183 7.0 12.0 0.00 0.00 0.00 48 1011.5
20260503201120 64 225 12.0 13.0 0.00 0.00 0.00 49 1011.7
20260503200616 65 208 7.0 13.0 0.00 0.00 0.00 46 1011.7
20260503200113 65 210 8.0 24.0 0.00 0.00 0.00 45 1011.6
20260503195609 66 220 12.0 18.0 0.00 0.00 0.00 44 1011.9
20260503195106 67 197 4.0 13.0 0.00 0.00 0.00 44 1012.0
20260503194603 67 236 3.0 16.0 0.00 0.00 0.00 46 1012.0
20260503194058 66 221 4.0 17.0 0.00 0.00 0.00 45 1012.0
20260503193555 65 130 8.0 13.0 0.00 0.00 0.00 44 1012.2
20260503193050 66 181 6.0 15.0 0.00 0.00 0.00 44 1012.1
20260503192546 66 222 5.0 11.0 0.00 0.00 0.00 47 1012.2
20260503192043 65 209 7.0 18.0 0.00 0.00 0.00 45 1012.1
20260503191539 65 215 5.0 13.0 0.00 0.00 0.00 46 1011.9
20260503191036 65 202 2.0 14.0 0.00 0.00 0.00 47 1012.1
20260503190533 65 228 6.0 14.0 0.00 0.00 0.00 46 1012.2
20260503190031 65 208 12.0 14.0 0.00 0.00 0.00 44 1012.4
20260503185527 65 228 12.0 13.0 0.00 0.00 0.00 45 1012.6
20260503185026 64 200 3.0 17.0 0.00 0.00 0.00 47 1012.8
20260503184523 65 227 6.0 29.0 0.00 0.00 0.00 45 1012.9
20260503184019 64 33 3.0 17.0 0.00 0.00 0.00 49 1013.1
20260503183516 63 229 13.0 15.0 0.00 0.00 0.00 48 1013.3
20260503183013 63 227 5.0 12.0 0.00 0.00 0.00 49 1013.4
20260503182512 62 220 4.0 16.0 0.00 0.00 0.00 49 1013.7
20260503182009 61 134 10.0 14.0 0.00 0.00 0.00 49 1014.0
20260503181506 61 199 4.0 13.0 0.00 0.00 0.00 50 1013.9
20260503181002 60 201 4.0 11.0 0.00 0.00 0.00 51 1014.4
20260503180500 60 210 12.0 12.0 0.00 0.00 0.00 50 1014.6
20260503175956 60 204 6.0 10.0 0.00 0.00 0.00 51 1014.6
20260503175455 60 110 3.0 12.0 0.00 0.00 0.00 51 1014.9
20260503174951 60 207 2.0 10.0 0.00 0.00 0.00 50 1014.8
20260503174449 60 225 9.0 12.0 0.00 0.00 0.00 50 1014.8
20260503173944 60 209 5.0 12.0 0.00 0.00 0.00 51 1015.1
20260503173440 60 228 9.0 13.0 0.00 0.00 0.00 50 1015.3
20260503172937 60 183 2.0 6.0 0.00 0.00 0.00 51 1015.4
20260503172435 59 187 2.0 11.0 0.00 0.00 0.00 51 1015.5
20260503171931 59 180 2.0 15.0 0.00 0.00 0.00 50 1015.5
20260503171428 59 180 6.0 8.0 0.00 0.00 0.00 50 1015.4
20260503170926 60 222 2.0 11.0 0.00 0.00 0.00 51 1015.5
20260503170421 60 201 3.0 9.0 0.00 0.00 0.00 50 1015.3
20260503150814 58 135 2.0 8.0 0.00 0.00 0.00 58 1017.3
20260503150309 58 234 4.0 8.0 0.00 0.00 0.00 60 1017.4
20260503140234 52 220 4.0 6.0 0.00 0.00 0.00 68 1017.8
20260503131158 50 194 3.0 7.0 0.00 0.00 0.00 70 1018.4
20260503130655 50 219 5.0 11.0 0.00 0.00 0.00 70 1018.2
20260503130153 50 187 3.0 12.0 0.00 0.00 0.00 70 1018.1
20260503120118 48 231 0.0 4.0 0.00 0.00 0.00 73 1018.2
20260503110539 43 137 1.0 3.0 0.00 0.00 0.00 77 1017.8
20260503090420 42 59 2.0 2.0 0.00 0.00 0.00 76 1018.4
20260503081347 40 63 0.0 2.0 0.00 0.00 0.00 78 1018.4
20260503080844 40 38 0.0 2.0 0.00 0.00 0.00 76 1018.5
20260503080341 41 140 0.0 2.0 0.00 0.00 0.00 75 1018.6
20260503072817 39 289 1.0 2.0 0.00 0.00 0.00 80 1018.5
20260503072314 39 353 1.0 2.0 0.00 0.00 0.00 83 1018.4
20260503071810 39 7 2.0 2.0 0.00 0.00 0.00 82 1018.6
20260503071308 39 8 1.0 2.0 0.00 0.00 0.00 84 1018.6
20260503070803 38 354 1.0 2.0 0.00 0.00 0.00 85 1018.6
20260503070302 38 25 0.0 2.0 0.00 0.00 0.00 85 1018.6
20260503060221 38 34 0.0 2.0 0.00 0.00 0.00 86 1019.0
20260503054707 38 43 1.0 2.0 0.00 0.00 0.00 86 1019.2
20260503054205 38 4 0.0 2.0 0.00 0.00 0.00 86 1019.2
20260503053702 38 24 0.0 1.0 0.00 0.00 0.00 85 1019.3
20260503053156 38 32 1.0 2.0 0.00 0.00 0.00 85 1019.4
20260503052651 38 42 0.0 2.0 0.00 0.00 0.00 85 1019.3
20260503052148 38 36 0.0 2.0 0.00 0.00 0.00 85 1019.3
20260503051643 38 30 1.0 2.0 0.00 0.00 0.00 86 1019.3
20260503051141 39 354 2.0 3.0 0.00 0.00 0.00 85 1019.5
20260503050638 38 343 0.0 2.0 0.00 0.00 0.00 86 1019.2
20260503050134 38 56 0.0 2.0 0.00 0.00 0.00 87 1019.5
20260503045632 38 346 0.0 2.0 0.00 0.00 0.00 87 1019.5
20260503045129 39 356 1.0 2.0 0.00 0.00 0.00 86 1019.4
20260503044626 38 39 1.0 1.0 0.00 0.00 0.00 87 1019.2
20260503044123 39 16 1.0 2.0 0.00 0.00 0.00 87 1019.5
20260503043619 39 355 1.0 2.0 0.00 0.00 0.00 87 1019.3
20260503043116 39 14 2.0 2.0 0.00 0.00 0.00 87 1019.4
20260503042613 39 353 1.0 2.0 0.00 0.00 0.00 87 1019.3
20260503042108 39 24 1.0 2.0 0.00 0.00 0.00 87 1019.4
20260503041605 39 17 1.0 1.0 0.00 0.00 0.00 87 1019.6
20260503041103 39 35 0.0 2.0 0.00 0.00 0.00 87 1019.3
20260503040600 39 2 1.0 2.0 0.00 0.00 0.00 87 1019.6
20260503040057 39 269 0.0 2.0 0.00 0.00 0.00 86 1019.7
20260503035554 39 39 0.0 2.0 0.00 0.00 0.00 86 1019.5
20260503035052 39 77 0.0 2.0 0.00 0.00 0.00 86 1019.4
20260503034549 39 40 0.0 2.0 0.00 0.00 0.00 86 1019.6
20260503034047 39 350 0.0 2.0 0.00 0.00 0.00 86 1019.5
20260503033544 39 348 0.0 1.0 0.00 0.00 0.00 85 1019.6
20260503033042 40 31 0.0 2.0 0.00 0.00 0.00 85 1019.8
20260503032540 40 342 1.0 2.0 0.00 0.00 0.00 84 1019.6
20260503032037 40 7 1.0 2.0 0.00 0.00 0.00 84 1019.7
20260503031535 40 39 0.0 1.0 0.00 0.00 0.00 83 1019.6
20260503031032 40 16 0.0 0.0 0.00 0.00 0.00 85 1019.5
20260503030528 40 32 0.0 1.0 0.00 0.00 0.00 85 1019.8
20260503030025 40 11 0.0 1.0 0.00 0.00 0.00 85 1019.6